This is the latest recevied weather packets stored in our database for station/object KG5APU. If no packets are shown the sender has not sent any weather packets the latest 10 day(s).
| Time | Temp. | Humidity | Pressure | Rain* | Wind** | Luminosity | Snow |
|---|---|---|---|---|---|---|---|
| 1788396338 | 33.33° C | 55% | 1012.6 hPa | 0 mm | - | 6 W/m² | - |
| 1788395734 | 33.33° C | 53% | 1012.7 hPa | 0 mm | - | 14 W/m² | - |
| 1788395130 | 33.89° C | 54% | 1012.5 hPa | 0 mm | - | 20 W/m² | - |
| 1788394525 | 33.89° C | 53% | 1012.4 hPa | 0 mm | - | 25 W/m² | - |
| 1788393920 | 33.89° C | 54% | 1012.5 hPa | 0 mm | - | 29 W/m² | - |
| 1788393319 | 33.89° C | 53% | 1012.6 hPa | 0 mm | - | 61 W/m² | - |
| 1788392714 | 33.89° C | 53% | 1012.3 hPa | 0 mm | - | 32 W/m² | - |
| 1788392114 | 34.44° C | 52% | 1012.3 hPa | 0 mm | - | 37 W/m² | - |
| 1788391514 | 34.44° C | 52% | 1012.5 hPa | 0 mm | - | 83 W/m² | - |
| 1788390909 | 34.44° C | 53% | 1012.4 hPa | 0 mm | - | 88 W/m² | - |
| 1788390309 | 35.56° C | 49% | 1012.4 hPa | 0 mm | - | 84 W/m² | - |
| 1788389703 | 36.11° C | 48% | 1012.2 hPa | 0 mm | - | 99 W/m² | - |
| 1788389102 | 35° C | 48% | 1012.3 hPa | 0 mm | - | 339 W/m² | - |
| 1788388500 | 35.56° C | 51% | 1012.3 hPa | 0 mm | - | 149 W/m² | - |
| 1788387898 | 36.67° C | 44% | 1012 hPa | 0 mm | - | 101 W/m² | - |
| 1788387297 | 37.78° C | 44% | 1012.2 hPa | 0 mm | - | 191 W/m² | - |
| 1788386693 | 37.22° C | 43% | 1012 hPa | 0 mm | - | 404 W/m² | - |
| 1788386089 | 36.67° C | 45% | 1012.6 hPa | 0 mm | - | 98 W/m² | - |
| 1788385484 | 37.78° C | 43% | 1012.4 hPa | 0 mm | - | 480 W/m² | - |
| 1788384880 | 36.67° C | 43% | 1012.4 hPa | 0 mm | - | 498 W/m² | - |
| 1788384275 | 36.67° C | 43% | 1012.6 hPa | 0 mm | - | 527 W/m² | - |
| 1788383673 | 37.78° C | 42% | 1012.6 hPa | 0 mm | - | 538 W/m² | - |
| 1788383068 | 37.78° C | 42% | 1012.7 hPa | 0 mm | - | 570 W/m² | - |
| 1788382467 | 37.22° C | 42% | 1013.1 hPa | 0 mm | - | 598 W/m² | - |
| 1788381862 | 37.22° C | 43% | 1013.2 hPa | 0 mm | - | 619 W/m² | - |
* Rain latest hour (hover to see other rain measurements)
** Current wind speed in m/s (hover to see current wind gust speed)